• Em Portugal
  • Lista de países
  • Para 7 dias
  • Temperatura da água
  • Mapas de satélite
  • Mapa do tempo
  • Widgets de tempo
  • user-avatar
    Iniciar Sessão

    Previsão horária em Recife

    Hoje, 20 Setembro, Quarta-feira

    Tempo Temperatura Precipitação Vento Pressão Humidade
    00:00 +25°C° 0,2 mm 5 m/s 761 mmHg 87%
    01:00 +25°C° 0,2 mm 5 m/s 761 mmHg 87%
    02:00 +25°C° 0,2 mm 5 m/s 761 mmHg 87%
    03:00 +25°C° 0,2 mm 5 m/s 760 mmHg 87%
    04:00 +25°C° 0,2 mm 5 m/s 760 mmHg 86%
    05:00 +25°C° 0,1 mm 5 m/s 761 mmHg 86%
    06:00 +25°C° 0,1 mm 5 m/s 761 mmHg 85%
    07:00 +25°C° 0,1 mm 5 m/s 761 mmHg 85%
    08:00 +26°C° 0,1 mm 5 m/s 761 mmHg 78%
    09:00 +28°C° 0,1 mm 5 m/s 762 mmHg 72%
    10:00 +29°C° 0,1 mm 6 m/s 762 mmHg 65%
    11:00 +30°C° 0 mm 6 m/s 762 mmHg 62%
    12:00 +30°C° 0 mm 6 m/s 761 mmHg 59%
    13:00 +32°C° 0 mm 6 m/s 761 mmHg 57%
    14:00 +30°C° 0 mm 6 m/s 761 mmHg 58%
    15:00 +30°C° 0 mm 6 m/s 760 mmHg 59%
    16:00 +29°C° 0 mm 6 m/s 760 mmHg 61%
    17:00 +28°C° 0,1 mm 6 m/s 760 mmHg 67%
    18:00 +27°C° 0,1 mm 5 m/s 760 mmHg 74%
    19:00 +26°C° 0,1 mm 5 m/s 761 mmHg 80%
    20:00 +26°C° 0,2 mm 5 m/s 761 mmHg 82%
    21:00 +24°C° 0,2 mm 6 m/s 761 mmHg 84%
    22:00 +24°C° 0,2 mm 6 m/s 762 mmHg 85%
    23:00 +24°C° 0,3 mm 6 m/s 761 mmHg 86%

    Amanhã, 21 Setembro, Quinta-feira

    Tempo Temperatura Precipitação Vento Pressão Humidade
    00:00 +24°C° 0,3 mm 6 m/s 761 mmHg 86%
    01:00 +24°C° 0,3 mm 6 m/s 761 mmHg 86%
    02:00 +24°C° 0,3 mm 6 m/s 761 mmHg 86%
    03:00 +24°C° 0,3 mm 6 m/s 760 mmHg 85%
    04:00 +24°C° 0,3 mm 6 m/s 760 mmHg 85%
    05:00 +24°C° 0,1 mm 6 m/s 760 mmHg 85%
    06:00 +24°C° 0,1 mm 6 m/s 760 mmHg 85%
    07:00 +24°C° 0,1 mm 6 m/s 761 mmHg 84%
    08:00 +27°C° 0,1 mm 6 m/s 761 mmHg 78%
    09:00 +28°C° 0,1 mm 6 m/s 761 mmHg 71%
    10:00 +29°C° 0,1 mm 6 m/s 762 mmHg 64%
    11:00 +30°C° 0 mm 6 m/s 762 mmHg 61%
    12:00 +30°C° 0 mm 6 m/s 761 mmHg 59%
    13:00 +32°C° 0 mm 6 m/s 761 mmHg 56%
    14:00 +30°C° 0 mm 6 m/s 760 mmHg 57%
    15:00 +30°C° 0 mm 6 m/s 760 mmHg 59%
    16:00 +30°C° 0 mm 6 m/s 759 mmHg 60%
    17:00 +28°C° 0 mm 5 m/s 760 mmHg 66%
    18:00 +27°C° 0 mm 5 m/s 760 mmHg 72%
    19:00 +26°C° 0 mm 5 m/s 760 mmHg 77%
    20:00 +26°C° 0 mm 5 m/s 761 mmHg 79%
    21:00 +26°C° 0 mm 5 m/s 761 mmHg 81%
    22:00 +25°C° 0 mm 5 m/s 762 mmHg 83%
    23:00 +25°C° 0,1 mm 5 m/s 761 mmHg 84%

    Depois de amanhã, 22 Setembro, Sexta-feira

    Tempo Temperatura Precipitação Vento Pressão Humidade
    00:00 +25°C° 0,1 mm 4 m/s 761 mmHg 85%
    01:00 +25°C° 0,1 mm 4 m/s 761 mmHg 86%
    02:00 +25°C° 0,2 mm 4 m/s 760 mmHg 86%
    03:00 +25°C° 0,2 mm 4 m/s 760 mmHg 87%
    04:00 +25°C° 0,2 mm 4 m/s 759 mmHg 87%
    05:00 +25°C° 0,3 mm 4 m/s 760 mmHg 86%
    06:00 +25°C° 0,3 mm 4 m/s 760 mmHg 86%
    07:00 +25°C° 0,3 mm 4 m/s 761 mmHg 85%
    08:00 +26°C° 0,2 mm 5 m/s 761 mmHg 81%
    09:00 +27°C° 0,2 mm 5 m/s 761 mmHg 77%
    10:00 +28°C° 0,2 mm 5 m/s 762 mmHg 73%
    11:00 +28°C° 0,3 mm 5 m/s 761 mmHg 71%
    12:00 +29°C° 0,3 mm 5 m/s 761 mmHg 68%
    13:00 +29°C° 0,3 mm 6 m/s 761 mmHg 66%
    14:00 +29°C° 0,2 mm 6 m/s 760 mmHg 67%
    15:00 +29°C° 0,2 mm 6 m/s 760 mmHg 68%
    16:00 +28°C° 0,2 mm 6 m/s 759 mmHg 69%
    17:00 +27°C° 0,3 mm 6 m/s 760 mmHg 73%
    18:00 +26°C° 0,3 mm 5 m/s 760 mmHg 77%
    19:00 +25°C° 0,3 mm 5 m/s 760 mmHg 81%
    20:00 +25°C° 0,4 mm 5 m/s 761 mmHg 83%
    21:00 +25°C° 0,4 mm 5 m/s 761 mmHg 84%
    22:00 +25°C° 0,4 mm 5 m/s 762 mmHg 85%
    23:00 +25°C° 0,3 mm 5 m/s 761 mmHg 86%

    23 Setembro, Sábado

    Tempo Temperatura Precipitação Vento Pressão Humidade
    00:00 +25°C° 0,3 mm 5 m/s 761 mmHg 87%
    01:00 +23°C° 0,3 mm 4 m/s 760 mmHg 88%
    02:00 +23°C° 0,2 mm 4 m/s 760 mmHg 88%
    03:00 +23°C° 0,2 mm 4 m/s 760 mmHg 89%
    04:00 +23°C° 0,2 mm 4 m/s 759 mmHg 90%
    05:00 +23°C° 0,4 mm 4 m/s 760 mmHg 89%
    06:00 +25°C° 0,4 mm 4 m/s 760 mmHg 88%
    07:00 +25°C° 0,4 mm 4 m/s 760 mmHg 87%
    08:00 +26°C° 0,5 mm 5 m/s 761 mmHg 83%
    09:00 +27°C° 0,5 mm 5 m/s 761 mmHg 78%
    10:00 +28°C° 0,5 mm 6 m/s 761 mmHg 74%
    11:00 +28°C° 0,5 mm 6 m/s 761 mmHg 75%
    12:00 +28°C° 0,5 mm 6 m/s 760 mmHg 76%
    13:00 +27°C° 0,5 mm 6 m/s 760 mmHg 77%
    14:00 +27°C° 0,5 mm 6 m/s 760 mmHg 78%
    15:00 +27°C° 0,5 mm 6 m/s 759 mmHg 80%
    16:00 +26°C° 0,5 mm 6 m/s 759 mmHg 81%
    17:00 +26°C° 0,2 mm 5 m/s 759 mmHg 82%
    18:00 +26°C° 0,2 mm 5 m/s 760 mmHg 83%
    19:00 +25°C° 0,2 mm 5 m/s 760 mmHg 84%
    20:00 +25°C° 0 mm 5 m/s 760 mmHg 85%
    21:00 +25°C° 0 mm 5 m/s 760 mmHg 86%
    22:00 +25°C° 0 mm 5 m/s 761 mmHg 87%
    23:00 +25°C° 0,1 mm 5 m/s 760 mmHg 87%

    24 Setembro, Domingo

    Tempo Temperatura Precipitação Vento Pressão Humidade
    00:00 +25°C° 0,1 mm 4 m/s 760 mmHg 87%
    01:00 +23°C° 0,1 mm 4 m/s 760 mmHg 87%
    02:00 +23°C° 0,1 mm 4 m/s 759 mmHg 87%
    03:00 +23°C° 0,1 mm 4 m/s 759 mmHg 87%
    04:00 +23°C° 0,1 mm 4 m/s 759 mmHg 86%
    05:00 +23°C° 0 mm 4 m/s 759 mmHg 85%
    06:00 +25°C° 0 mm 4 m/s 760 mmHg 84%
    07:00 +25°C° 0 mm 4 m/s 760 mmHg 83%
    08:00 +26°C° 0,1 mm 5 m/s 760 mmHg 76%
    09:00 +28°C° 0,1 mm 5 m/s 761 mmHg 70%
    10:00 +29°C° 0,1 mm 6 m/s 761 mmHg 63%
    11:00 +30°C° 0 mm 6 m/s 760 mmHg 61%
    12:00 +30°C° 0 mm 6 m/s 760 mmHg 59%
    13:00 +30°C° 0 mm 6 m/s 759 mmHg 57%
    14:00 +30°C° 0 mm 6 m/s 759 mmHg 58%
    15:00 +30°C° 0 mm 6 m/s 759 mmHg 60%
    16:00 +29°C° 0 mm 6 m/s 758 mmHg 61%
    17:00 +28°C° 0 mm 5 m/s 759 mmHg 66%
    18:00 +27°C° 0 mm 5 m/s 759 mmHg 71%
    19:00 +26°C° 0 mm 4 m/s 759 mmHg 75%
    20:00 +26°C° 0 mm 4 m/s 760 mmHg 78%
    21:00 +25°C° 0 mm 4 m/s 760 mmHg 80%
    22:00 +25°C° 0 mm 4 m/s 760 mmHg 82%
    23:00 +25°C° 0,1 mm 4 m/s 760 mmHg 84%

    25 Setembro, Segunda-feira

    Tempo Temperatura Precipitação Vento Pressão Humidade
    00:00 +25°C° 0,1 mm 4 m/s 760 mmHg 86%
    01:00 +25°C° 0,1 mm 4 m/s 759 mmHg 87%
    02:00 +25°C° 0,3 mm 4 m/s 759 mmHg 88%
    03:00 +23°C° 0,3 mm 4 m/s 759 mmHg 89%
    04:00 +23°C° 0,3 mm 4 m/s 759 mmHg 90%
    05:00 +25°C° 0,4 mm 5 m/s 759 mmHg 89%
    06:00 +25°C° 0,4 mm 5 m/s 760 mmHg 89%
    07:00 +25°C° 0,4 mm 5 m/s 760 mmHg 88%
    08:00 +26°C° 0,6 mm 5 m/s 761 mmHg 85%
    09:00 +26°C° 0,6 mm 6 m/s 761 mmHg 83%
    10:00 +27°C° 0,6 mm 6 m/s 761 mmHg 81%
    11:00 +27°C° 0,4 mm 6 m/s 761 mmHg 80%
    12:00 +27°C° 0,4 mm 6 m/s 760 mmHg 79%
    13:00 +27°C° 0,4 mm 6 m/s 760 mmHg 78%
    14:00 +28°C° 0,1 mm 6 m/s 760 mmHg 75%
    15:00 +28°C° 0,1 mm 6 m/s 759 mmHg 73%
    16:00 +29°C° 0,1 mm 6 m/s 759 mmHg 70%
    17:00 +28°C° 0 mm 5 m/s 759 mmHg 74%
    18:00 +27°C° 0 mm 5 m/s 759 mmHg 78%
    19:00 +26°C° 0 mm 5 m/s 759 mmHg 82%
    20:00 +26°C° 0,1 mm 5 m/s 760 mmHg 83%
    21:00 +25°C° 0,1 mm 5 m/s 760 mmHg 85%
    22:00 +25°C° 0,1 mm 5 m/s 760 mmHg 86%
    23:00 +25°C° 0,1 mm 5 m/s 760 mmHg 87%
    Mostrar mais